EA4LT-13 Weather Reports


Display with metric or nautical units.
time (UTC)temp
F
wind
direction
speed
MPH
gust
MPH
rain 1hr
in
rain 24hr
in
rain mn
in
humidity
%
barometer
mb
20260831155015 88 180 0.0 8.0 0.00 0.00 0.00 28 1016.0
20260831153514 88 315 3.0 9.0 0.00 0.00 0.00 28 1015.9
20260831152014 88 90 3.0 8.0 0.00 0.00 0.00 28 1016.2
20260831150515 89 338 1.0 4.0 0.00 0.00 0.00 28 1016.4
20260831145014 86 292 0.0 9.0 0.00 0.00 0.00 28 1016.4
20260831143515 87 248 3.0 9.0 0.00 0.00 0.00 29 1016.6
20260831142014 88 292 1.0 4.0 0.00 0.00 0.00 28 1016.7
20260831140514 87 90 1.0 6.0 0.00 0.00 0.00 28 1016.9
20260831135014 84 292 1.0 8.0 0.00 0.00 0.00 30 1016.7
20260831133514 87 180 1.0 6.0 0.00 0.00 0.00 28 1016.8
20260831132015 85 112 3.0 9.0 0.00 0.00 0.00 27 1017.1
20260831130514 84 112 2.0 6.0 0.00 0.00 0.00 28 1017.0
20260831125014 83 338 3.0 6.0 0.00 0.00 0.00 28 1017.1
20260831123515 84 292 3.0 8.0 0.00 0.00 0.00 31 1017.4
20260831122014 81 292 4.0 8.0 0.00 0.00 0.00 33 1017.5
20260831120513 82 292 5.0 6.0 0.00 0.00 0.00 34 1017.6
20260831115014 81 315 4.0 6.0 0.00 0.00 0.00 34 1017.7
20260831113514 80 270 0.0 8.0 0.00 0.00 0.00 38 1017.6
20260831112014 80 315 1.0 9.0 0.00 0.00 0.00 42 1017.9
20260831110513 80 338 2.0 6.0 0.00 0.00 0.00 43 1017.9
20260831105013 78 315 2.0 9.0 0.00 0.00 0.00 46 1018.1
20260831103513 80 68 0.0 6.0 0.00 0.00 0.00 44 1018.1
20260831102014 77 315 3.0 9.0 0.00 0.00 0.00 48 1017.9
20260831100514 75 315 6.0 9.0 0.00 0.00 0.00 50 1018.1
20260831095013 75 315 3.0 6.0 0.00 0.00 0.00 51 1018.0
20260831093513 73 22 3.0 8.0 0.00 0.00 0.00 53 1017.9
20260831092014 72 292 4.0 10.0 0.00 0.00 0.00 53 1017.9
20260831090512 72 292 3.0 8.0 0.00 0.00 0.00 57 1017.9
20260831085013 71 292 3.0 9.0 0.00 0.00 0.00 58 1017.8
20260831083512 69 292 4.0 8.0 0.00 0.00 0.00 62 1017.7
20260831082014 68 338 4.0 8.0 0.00 0.00 0.00 62 1017.8
20260831080512 67 315 3.0 8.0 0.00 0.00 0.00 64 1017.5
20260831075013 66 315 3.0 8.0 0.00 0.00 0.00 66 1017.3
20260831073512 65 315 4.0 8.0 0.00 0.00 0.00 67 1017.4
20260831072013 64 315 4.0 6.0 0.00 0.00 0.00 69 1017.4
20260831070513 62 292 3.0 6.0 0.00 0.00 0.00 72 1017.3
20260831065012 62 315 4.0 6.0 0.00 0.00 0.00 71 1017.0
20260831063512 62 292 5.0 8.0 0.00 0.00 0.00 71 1017.1
20260831062012 61 292 6.0 9.0 0.00 0.00 0.00 71 1017.2
20260831060511 61 292 5.0 8.0 0.00 0.00 0.00 71 1017.3
20260831055013 61 315 5.0 9.0 0.00 0.00 0.00 70 1017.2
20260831053512 61 292 6.0 9.0 0.00 0.00 0.00 70 1017.0
20260831052012 61 292 6.0 11.0 0.00 0.00 0.00 69 1017.0
20260831050511 62 315 7.0 11.0 0.00 0.00 0.00 68 1017.1
20260831045013 62 315 7.0 11.0 0.00 0.00 0.00 67 1017.0
20260831043511 62 315 7.0 11.0 0.00 0.00 0.00 66 1017.0
20260831042012 63 292 7.0 11.0 0.00 0.00 0.00 64 1017.0
20260831040511 63 315 6.0 10.0 0.00 0.00 0.00 64 1017.1
20260831035011 63 292 6.0 9.0 0.00 0.00 0.00 63 1017.0
20260831033512 64 315 6.0 9.0 0.00 0.00 0.00 63 1017.1
20260831032011 64 338 6.0 10.0 0.00 0.00 0.00 63 1016.7
20260831030511 64 315 5.0 10.0 0.00 0.00 0.00 62 1016.9
20260831025011 64 315 6.0 9.0 0.00 0.00 0.00 62 1017.2
20260831023511 64 315 5.0 9.0 0.00 0.00 0.00 62 1017.1
20260831022011 64 315 5.0 9.0 0.00 0.00 0.00 62 1017.1
20260831020510 64 292 5.0 8.0 0.00 0.00 0.00 62 1017.1
20260831015010 63 292 4.0 6.0 0.00 0.00 0.00 64 1017.2
20260831013511 63 315 3.0 6.0 0.00 0.00 0.00 64 1017.2
20260831012012 64 292 3.0 6.0 0.00 0.00 0.00 64 1017.1
20260831010511 64 270 4.0 6.0 0.00 0.00 0.00 62 1017.1
20260831005012 64 315 6.0 8.0 0.00 0.00 0.00 62 1017.2
20260831003510 65 315 5.0 8.0 0.00 0.00 0.00 62 1017.3
20260831002011 65 292 4.0 8.0 0.00 0.00 0.00 62 1017.5
20260831000510 65 315 5.0 9.0 0.00 0.00 0.00 62 1017.3
20260830235010 64 315 3.0 6.0 0.00 0.00 0.00 64 1017.3
20260830233511 66 292 3.0 6.0 0.00 0.00 0.00 63 1017.3
20260830232011 66 270 5.0 9.0 0.00 0.00 0.00 63 1017.3
20260830230511 66 315 6.0 9.0 0.00 0.00 0.00 63 1017.2
20260830225010 66 315 6.0 10.0 0.00 0.00 0.00 63 1017.3
20260830223510 67 315 7.0 11.0 0.00 0.00 0.00 63 1017.5
20260830222011 67 315 6.0 11.0 0.00 0.00 0.00 62 1017.1
20260830220510 68 292 8.0 12.0 0.00 0.00 0.00 61 1017.2
20260830215011 69 360 8.0 13.0 0.00 0.00 0.00 60 1017.3
20260830213509 69 292 9.0 12.0 0.00 0.00 0.00 61 1017.3
20260830212009 70 292 6.0 12.0 0.00 0.00 0.00 62 1017.2
20260830210509 71 292 7.0 11.0 0.00 0.00 0.00 61 1017.2
20260830205009 72 315 6.0 12.0 0.00 0.00 0.00 60 1017.1
20260830203510 72 292 7.0 12.0 0.00 0.00 0.00 59 1017.2
20260830202009 73 292 7.0 13.0 0.00 0.00 0.00 57 1016.9
20260830200509 74 315 7.0 10.0 0.00 0.00 0.00 55 1016.8
20260830195010 75 315 3.0 10.0 0.00 0.00 0.00 51 1016.7
20260830193510 76 315 7.0 11.0 0.00 0.00 0.00 50 1016.5
20260830192009 76 292 7.0 11.0 0.00 0.00 0.00 50 1016.5
20260830190509 77 315 6.0 15.0 0.00 0.00 0.00 49 1016.2
20260830185010 78 292 6.0 13.0 0.00 0.00 0.00 46 1016.2
20260830183508 80 292 9.0 12.0 0.00 0.00 0.00 43 1016.2
20260830182009 81 315 6.0 12.0 0.00 0.00 0.00 42 1016.3
20260830180509 81 315 8.0 12.0 0.00 0.00 0.00 41 1016.4
20260830175010 82 292 8.0 15.0 0.00 0.00 0.00 40 1016.4
20260830173508 84 270 5.0 13.0 0.00 0.00 0.00 36 1016.3
20260830172009 83 292 9.0 15.0 0.00 0.00 0.00 36 1016.1
20260830170510 84 315 6.0 13.0 0.00 0.00 0.00 34 1016.1
20260830165009 84 292 6.0 12.0 0.00 0.00 0.00 34 1016.4
20260830163509 85 292 9.0 12.0 0.00 0.00 0.00 34 1016.2
20260830162009 85 315 3.0 11.0 0.00 0.00 0.00 34 1016.1
20260830160509 85 292 5.0 15.0 0.00 0.00 0.00 35 1016.1